Regional Weather Roundup
Issued by NWS Sterling, VA

Home | Current Version | Previous Version | Text Only | Print | Product List | Glossary On
Versions: 1 2 3 4 5 6 7 8 9 10 11 12 13 14 15 16 17 18 19 20 21 22 23 24 25 26 27 28 29 30 31 32 33 34 35 36 37 38 39 40 41 42 43 44 45 46 47 48 49 50
000
ASUS41 KLWX 271210
RWRLWX

REGIONAL WEATHER ROUNDUP
NATIONAL WEATHER SERVICE BALTIMORE MD/WASHINGTON DC
800 AM EDT MON APR 27 2015

Note: "FAIR" indicates few or no clouds below 12,000 feet
with no significant weather and/or obstructions to visibility.
 TC=TEMPERATURE CELSIUS

 * =Non NWS site. Station does not report precipitation (e.g. rain,
    snow, etc.), thunder, or fog.

DCZ001-MDZ009-015-VAZ040>042-051-053>054-271300-
WASHINGTON METRO

CITY           SKY/WX    TMP DP  RH WIND       PRES   REMARKS
WASHINGTON NAT MOSUNNY   53  32  44 NW12      29.79R
DULLES         MOSUNNY   48  34  58 NW3       29.78R
ANDREWS AFB    SUNNY     49  33  53 NW5       29.76R
FT BELVOIR     SUNNY     49  35  59 NW2       29.78R
QUANTICO       MOSUNNY   48  35  60 NW7       29.80R
LEESBURG*      MOSUNNY   50  36  57 NW10      29.80R
MANASSAS*      SUNNY     43  41  93 CALM      29.79R
GAITHERSBURG*  MOSUNNY   45  34  65 NW3       29.81R

$$

MDZ006>007-011-014-271300-
BALTIMORE METRO

CITY           SKY/WX    TMP DP  RH WIND       PRES   REMARKS
BWI AIRPORT    PTSUNNY   48  34  58 CALM      29.76R
MD SCIENCE CTR   N/A     51  30  44 MISG      29.77R
MARTIN STATE   PTSUNNY   50  39  66 W7        29.77R
ANNAPOLIS      CLOUDY    50  36  58 NW5       29.77R
FORT MEADE*    PTSUNNY   43  37  81 CALM      29.79R

$$

MDZ012-015-019>023-271300-
MARYLAND EASTERN SHORE

CITY           SKY/WX    TMP DP  RH WIND       PRES   REMARKS
OCEAN CITY     CLOUDY    46  41  82 N5        29.74R
SALISBURY      CLOUDY    45  38  76 N6        29.74R
BAY BRIDGE AP*   N/A    N/A N/A N/A CALM      29.76S
CAMBRIDGE*     SUNNY     52  36  54 N7        29.75R
EASTON*        MOSUNNY   48  39  71 CALM      29.79R

$$

MDZ017>025-271300-
SOUTHERN MARYLAND

CITY           SKY/WX    TMP DP  RH WIND       PRES   REMARKS
PATUXENT RIVER MOSUNNY   52  41  66 N7        29.76R
ST INIGOES     SUNNY     53  37  54 N5        29.75R
LEONARDTOWN*   SUNNY     48  36  61 CALM      29.78R

$$

MDZ003>005-271300-
NORTH CENTRAL MARYLAND

CITY           SKY/WX    TMP DP  RH WIND       PRES   REMARKS
FREDERICK*     CLOUDY   N/A N/A N/A CALM      29.80
HAGERSTOWN APT CLOUDY    47  33  58 NW8       29.77R
WESTMINSTER*   CLOUDY    46  32  57 W3        29.76R

$$

MDZ501>502-271300-
WESTERN MARYLAND

CITY           SKY/WX    TMP DP  RH WIND       PRES   REMARKS
OAKLAND*       CLOUDY    32 N/A N/A W8        29.78R WCI  25
CUMBERLAND*    SUNNY     46  32  57 NE3       29.85R

$$

VAZ025>031-271300-
SHENANDOAH VALLEY

CITY           SKY/WX    TMP DP  RH WIND       PRES   REMARKS
WINCHESTER*    SUNNY     48  30  49 NW13      29.79R
FRONT ROYAL*   FAIR      46  32  57 CALM      29.79R
LURAY*         FAIR      45  36  70 CALM      29.81R
NEW MARKET*    FAIR      40  36  86 CALM      29.81R
STAUNTON*      SUNNY     38  36  91 CALM      29.83R
WAYNESBORO*    FAIR      37  36  96 CALM      29.80S

$$

WVZ021-048>050-054>055-271300-
EASTERN WEST VIRGINIA PANHANDLE

CITY           SKY/WX    TMP DP  RH WIND       PRES   REMARKS
MARTINSBURG    CLOUDY    48  32  53 NW7       29.79R
PETERSBURG*    SUNNY     40  34  79 CALM      29.84R

$$

VAZ036>039-050-271300-
CENTRAL FOOTHILLS

CITY           SKY/WX    TMP DP  RH WIND       PRES   REMARKS
CHARLOTTESVILL SUNNY     47  37  68 CALM      29.80R
CULPEPER*      SUNNY     50  34  53 N5        29.80R
ORANGE*        SUNNY     50  34  53 NW3       29.80S
GORDONSVILLE*  FAIR      47  35  63 CALM      29.79R
WARRENTON*     FAIR      47  40  75 CALM      29.79R

$$

VAZ055>057-271300-
NORTH AND CENTRAL PIEDMONT

CITY           SKY/WX    TMP DP  RH WIND       PRES   REMARKS
FREDERICKSBRG* SUNNY     47  37  68 NW5       29.78S
STAFFORD*      SUNNY     47  35  62 NW6       29.83R

$$

NCZ024-NYZ072-PAZ021-071-VAZ022-071-271300-
OTHER REGIONAL OBSERVATIONS

CITY           SKY/WX    TMP DP  RH WIND       PRES   REMARKS
NEW YORK CITY  CLOUDY    50  31  48 MISG      29.70R
PHILADELPHIA   PTSUNNY   50  31  48 N8        29.73S
PITTSBURGH     MOSUNNY   39  32  76 NW10      29.85R
ROANOKE        SUNNY     44  37  76 W9        29.85R
RICHMOND       MOSUNNY   49  38  65 N8        29.78R
RALEIGH        MOSUNNY   46  45  96 CALM      29.80R

$$

ANZ530>537-271300-
MARINE OBSERVATIONS

STATION/POSITION TIME  TEMP    WIND        PRES
                       AIR SEA DIR/SP/G
                 (UTC) (F)     (DEG/KT/KT) (MB)
THOMAS PT LIGHT  1200   49 53  300/  5/  6 1008.7R
BALT KEY BRIDGE  1100   51     310/  7/  8 1007.4R
COVE POINT       1100   51      30/  7/  9 1007.9R
LEWISETTA        1100   52 57              1007.0R
SOLOMONS ISLAND  1100      54                N/A
PINEY POINT      1100           20/  5/  6   N/A

$$



USA.gov is the U.S. government's official web portal to all federal, state and local government web resources and services.